Flag for Australia Weather past 2 weeks in Canberra, Australian Capital Territory, Australia

Now
54 °F

Sprinkles. Broken clouds.


Feels Like: 49 °F
Forecast: 51 / 64 °F
Wind: 17 mph from South

Location: Canberra Airport

Current Time: Apr 21, 2015 at 1:51:45 PM

Latest Report: Apr 21, 2015 at 1:00 PM


Visibility: N/A

Pressure: 30.24 "Hg

Humidity: 58%

Dew point: 39 °F

Location of CanberraLocation

Historic Weather in Canberra — Graph

°F

Canberra temperature yesterday

Maximum temperature yesterday: 57 °F (at 1:00 PM)
Minimum temperature yesterday: 45 °F (at 3:00 AM)
Average temperature yesterday: 50 °F

Past Weeks' High & Low Weather Summary

 TemperatureHumidityPressure
High79 °F (Apr 16, 2:00 PM)100% (Apr 6, 9:00 PM)30.39 "Hg (Apr 6, 9:00 PM)
Low41 °F (Apr 8, 2:04 AM)28% (Apr 16, 3:00 PM)29.68 "Hg (Apr 6, 5:00 PM)
Average55 °F77%30.14 "Hg
* Reported Apr 6 12:00 Noon — Apr 21 12:00 Noon, Canberra, Weather by CustomWeather, © 2015

Note: Actual official high and low records may vary slightly from our data, if they occured in-between our weather recording intervals... More about our weather records

Advertising

Canberra weather history for previous 24 hours

 ConditionsComfort  
Time TempWeatherWind HumidityBarometerVisibility
12:00 PM
Tue, Apr 21
54 °FBroken clouds.22 mph63%30.27 "HgN/A
11:00 AM52 °FBroken clouds.21 mph62%30.30 "HgN/A
10:30 AM52 °FBroken clouds.23 mph62%30.30 "HgN/A
10:05 AM52 °FBroken clouds.18 mph62%30.30 "HgN/A
9:30 AM52 °FPartly sunny.20 mph62%30.30 "HgN/A
9:05 AM52 °FBroken clouds.17 mph62%30.30 "HgN/A
9:00 AM52 °FBroken clouds.16 mph62%30.30 "HgN/A
8:30 AM50 °FBroken clouds.15 mph67%30.33 "HgN/A
8:00 AM48 °FPartly sunny.14 mph71%30.33 "HgN/A
7:00 AM48 °FPartly sunny.17 mph66%30.30 "HgN/A
6:47 AM48 °FPartly sunny.18 mph66%30.30 "HgN/A
6:30 AM48 °FPartly sunny.16 mph66%30.30 "HgN/A
6:00 AM48 °FPartly sunny.15 mph71%30.30 "HgN/A
5:30 AM46 °FPassing clouds.15 mph76%30.30 "HgN/A
5:00 AM48 °FPartly cloudy.18 mph71%30.30 "HgN/A
4:30 AM46 °FPassing clouds.16 mph76%30.30 "HgN/A
4:00 AM48 °FClear.15 mph71%30.30 "HgN/A
3:30 AM46 °FClear.15 mph76%30.30 "HgN/A
3:00 AM48 °FPassing clouds.15 mph71%30.30 "HgN/A
2:30 AM48 °FClear.15 mph71%30.30 "HgN/A
2:00 AM46 °FClear.17 mph76%30.30 "HgN/A
1:30 AM46 °FClear.18 mph76%30.33 "HgN/A
1:00 AM46 °FClear.18 mph76%30.33 "HgN/A
12:30 AM46 °FClear.20 mph76%30.33 "HgN/A
12:00 AM48 °FClear.20 mph71%30.33 "HgN/A
11:30 PM
Mon, Apr 20
46 °FPassing clouds.16 mph76%30.36 "HgN/A
11:00 PM48 °FMostly cloudy.14 mph71%30.36 "HgN/A
10:30 PM50 °FOvercast.13 mph67%30.39 "HgN/A
10:00 PM50 °FOvercast.15 mph67%30.39 "HgN/A
9:30 PM50 °FMostly cloudy.13 mph67%30.36 "HgN/A
9:00 PM50 °FPartly cloudy.17 mph62%30.36 "HgN/A
8:00 PM50 °FPassing clouds.17 mph62%30.36 "HgN/A
7:30 PM50 °FPassing clouds.16 mph67%30.33 "HgN/A
7:00 PM52 °FPassing clouds.18 mph62%30.33 "HgN/A
6:30 PM52 °FPassing clouds.18 mph62%30.33 "HgN/A
6:05 PM52 °FPassing clouds.21 mph62%30.33 "HgN/A
6:00 PM52 °FPassing clouds.20 mph62%30.33 "HgN/A
5:00 PM54 °FPassing clouds.20 mph54%30.33 "HgN/A
4:30 PM54 °FPartly sunny.22 mph54%30.33 "HgN/A
4:00 PM54 °FPartly sunny.17 mph54%30.33 "HgN/A
3:00 PM55 °FBroken clouds.24 mph51%30.30 "HgN/A
2:30 PM55 °FBroken clouds.23 mph51%30.30 "HgN/A
2:00 PM55 °FPartly sunny.23 mph55%30.33 "HgN/A
1:00 PM57 °FBroken clouds.24 mph51%30.33 "HgN/A
Weather by CustomWeather, © 2015

See weather overviewHow to use our weather pages